Overview Statistics Trail Chart Weather Telemetry Raw packets
 

This is the latest recevied weather packets stored in our database for station/object WX5KDM. If no packets are shown the sender has not sent any weather packets the latest 10 day(s).

<< 11 12 13 14 15 16 17 >>
Time Temp. Humidity Pressure Rain* Wind** Luminosity Snow
1788545778 36.11° C 49% 1015.9 hPa 0 mm - - -
1788545478 36.11° C 49% 1015.9 hPa 0 mm - - -
1788545173 35.56° C 49% 1016.1 hPa 0 mm - - -
1788544868 36.11° C 49% 1016 hPa 0 mm - - -
1788544562 36.67° C 48% 1016 hPa 0 mm - - -
1788544260 36.67° C 50% 1016.1 hPa 0 mm - - -
1788543955 36.11° C 47% 1016.2 hPa 0 mm - - -
1788543652 36.67° C 50% 1016.3 hPa 0 mm - - -
1788543352 36.67° C 47% 1016.3 hPa 0 mm - - -
1788543048 36.11° C 49% 1016.4 hPa 0 mm - - -
1788542743 36.11° C 49% 1016.6 hPa 0 mm - - -
1788542442 36.11° C 51% 1016.7 hPa 0 mm - - -
1788542138 36.11° C 50% 1016.6 hPa 0 mm - - -
1788541833 36.11° C 52% 1016.7 hPa 0 mm - - -
1788541529 36.11° C 50% 1016.9 hPa 0 mm - - -
1788541225 36.11° C 52% 1016.8 hPa 0 mm - - -
1788540923 35.56° C 52% 1016.8 hPa 0 mm - - -
1788540623 35.56° C 52% 1017 hPa 0 mm - - -
1788540318 35.56° C 52% 1016.9 hPa 0 mm - - -
1788540015 36.11° C 50% 1017 hPa 0 mm - - -
1788539714 35° C 52% 1017 hPa 0 mm - - -
1788539409 35° C 54% 1017.1 hPa 0 mm - - -
1788539103 35.56° C 53% 1017.1 hPa 0 mm - - -
1788538799 35.56° C 53% 1017.1 hPa 0 mm - - -
1788538494 35.56° C 54% 1017.1 hPa 0 mm - - -

* Rain latest hour (hover to see other rain measurements)
** Current wind speed in m/s (hover to see current wind gust speed)